Home > Time Zones > World Clock > Weather > Norway > Oslo > Past weeks

Flag Weather past 2 weeks in Oslo, Norway

Now
35 °F

Partly sunny.


Feels Like: 35 °F
Forecast: 29 / 34 °F
Wind: 1 mph from Southwest

Location: Oslo-Blindern

Current Time: Nov 26, 2014 at 1:51:44 PM

Latest Report: Nov 26, 2014 at 1:00 PM


Visibility: 41 mi

Pressure: 30.32 "Hg

Humidity: 86%

Dew point: 31 °F

Location of OsloLocation

Historic Weather in Oslo — Graph

°F

Oslo temperature yesterday

Maximum temperature yesterday: 42 °F (at 1:00 PM)
Minimum temperature yesterday: 31 °F (at 11:00 PM)
Average temperature yesterday: 35 °F

Past Weeks' High & Low Weather Summary

 TemperatureHumidityPressure
High46 °F (Nov 11, 2:00 PM)98% (Nov 24, 10:00 AM)30.52 "Hg (Nov 24, 10:00 AM)
Low28 °F (Nov 26, 9:00 AM)72% (Nov 17, 11:00 AM)29.66 "Hg (Nov 24, 8:00 AM)
Average39 °F87%30.22 "Hg
* Reported Nov 11 12:00 Noon — Nov 26 12:00 Noon, Oslo, Weather by CustomWeather, © 2014

Note: Actual official high and low records may vary slightly from our data, if they occured in-between our weather recording intervals... More about our weather records

Advertising

Oslo weather history for previous 24 hours

 ConditionsComfort  
Time TempWeatherWind HumidityBarometerVisibility
12:00 PM
Nov 26
33 °FChilly.1 mph95%30.34 "HgN/A
11:00 AM32 °FChilly.1 mph97%30.34 "HgN/A
10:00 AM30 °FScattered clouds.1 mph96%30.34 "Hg43 mi
9:00 AM28 °FChilly.1 mph97%30.34 "HgN/A
8:00 AM28 °FChilly.1 mph97%30.33 "HgN/A
7:00 AM28 °FClear.1 mph97%30.32 "Hg43 mi
6:00 AM28 °FChilly.1 mph97%30.31 "HgN/A
5:00 AM29 °FChilly.No wind98%30.31 "HgN/A
3:00 AM29 °FChilly.No wind97%30.31 "HgN/A
2:00 AM29 °FChilly.No wind96%30.30 "HgN/A
1:00 AM31 °FPassing clouds.1 mph97%30.30 "Hg40 mi
12:00 AM31 °FChilly.2 mph97%30.29 "HgN/A
11:00 PM
Nov 25
31 °FChilly.No wind96%30.29 "HgN/A
10:00 PM32 °FPassing clouds.1 mph96%30.27 "Hg43 mi
9:00 PM33 °FChilly.2 mph92%30.26 "HgN/A
8:00 PM34 °FChilly.1 mph93%30.24 "HgN/A
7:00 PM33 °FPassing clouds.1 mph94%30.23 "Hg43 mi
6:00 PM34 °FChilly.1 mph94%30.22 "HgN/A
5:00 PM37 °FChilly.2 mph90%30.20 "HgN/A
4:00 PM38 °FPassing clouds.No wind85%30.19 "Hg43 mi
3:00 PM40 °FChilly.1 mph80%30.19 "HgN/A
2:00 PM42 °FQuite cool.1 mph78%30.19 "HgN/A
1:00 PM42 °FScattered clouds.1 mph77%30.19 "Hg12 mi
Weather by CustomWeather, © 2014

See weather overviewHow to use our weather pages